Theta_e
299 291 287 290 294 291 289 286 287 289 293 289 290 291 293 296 295 295 296 298 298 299 302 306 311 314 315 314 313 314 318 321 325 325 326 328 328 329 330 330 331 331 331 330
295 289 294 294 293 292 290 287 285 290 294 291 290 289 293 294 295 295 296 297 298 299 300 303 304 305 307 310 311 312 314 318 322 324 326 328 329 328 329 329 329 330 330 329
291 293 297 295 290 288 288 287 287 286 291 291 289 286 289 293 296 297 298 299 300 300 299 301 303 304 307 308 309 310 311 315 321 324 325 324 325 323 325 326 326 327 328 328
293 298 295 293 291 289 284 291 290 289 285 279 288 277 284 288 290 294 296 297 298 299 301 301 303 303 303 305 307 309 311 311 314 322 321 320 320 320 320 322 326 327 327 326
289 292 293 291 292 293 288 292 289 288 285 283 283 279 282 288 288 289 294 296 298 300 300 300 301 303 303 305 309 310 311 311 312 315 320 319 318 319 319 318 320 323 327 327
293 298 296 294 297 295 294 291 290 288 285 277 282 281 281 285 288 289 292 295 297 298 299 300 302 304 305 307 309 310 310 310 311 311 313 316 317 317 316 316 316 319 322 325
290 291 294 296 292 295 293 287 278 277 277 274 284 281 282 288 291 290 290 291 295 297 298 299 301 303 305 305 307 308 309 308 309 310 310 310 312 314 314 315 316 317 318 319
282 281 291 295 293 290 290 288 280 274 275 278 285 279 283 291 294 295 294 295 295 295 298 299 301 303 303 305 305 306 305 306 305 307 311 314 317 314 315 316 316 317 317 319
283 283 292 294 295 294 289 285 290 282 280 278 281 285 290 293 292 293 292 293 294 295 296 298 300 301 302 302 303 303 302 302 302 303 304 304 305 307 307 308 311 314 315 313
287 280 289 292 294 294 291 293 283 284 274 273 278 280 283 287 290 292 292 293 294 295 298 299 300 301 300 301 300 299 300 299 300 301 301 301 301 301 302 303 302 302 303 304
290 285 284 289 288 287 288 287 287 287 283 275 274 277 288 290 291 291 292 294 295 296 297 298 298 299 298 298 298 297 298 298 298 299 300 299 299 300 300 300 300 300 301 301
290 285 280 283 290 293 292 288 288 281 278 281 281 280 291 291 293 293 293 293 295 296 297 297 298 297 297 297 297 297 297 296 296 297 297 297 297 297 297 297 298 299 299 300
289 283 276 278 284 290 288 290 290 289 287 281 278 280 292 293 293 293 293 294 295 296 295 296 296 295 295 296 296 294 293 293 293 294 294 293 292 293 293 294 295 296 296 296
291 285 281 275 280 283 282 286 287 287 282 282 282 284 289 290 290 292 293 294 295 295 296 295 295 294 295 295 294 291 290 290 290 291 291 290 289 289 290 291 292 292 293 293
286 274 280 279 281 282 281 282 282 281 283 282 285 285 289 291 290 292 295 296 294 296 295 295 295 295 294 292 290 289 288 288 288 288 287 286 287 287 287 287 288 289 290 291
286 277 278 272 280 281 279 280 281 280 280 282 285 283 291 294 292 291 292 295 296 296 295 296 296 296 293 291 287 287 285 285 285 284 283 283 283 283 283 284 284 286 287 288
281 278 276 271 278 278 272 277 280 281 283 284 280 286 290 290 291 289 287 289 291 288 288 294 294 289 284 282 282 281 282 282 282 280 280 279 279 279 280 281 282 282 283 285
277 276 275 270 273 266 276 282 282 282 283 284 284 286 290 290 281 280 280 280 279 280 279 279 280 278 277 278 279 280 280 279 277 276 276 276 276 276 278 278 279 279 280 280
285 278 271 268 267 273 276 279 279 278 279 278 277 280 279 280 283 274 275 275 274 275 276 275 274 274 273 273 276 277 274 274 273 273 273 274 274 275 275 276 277 278 277 277
283 282 274 268 264 262 275 276 279 281 275 274 275 274 274 279 280 270 272 272 272 273 274 273 272 272 271 272 274 273 272 271 270 271 272 273 273 273 273 274 275 276 277 277
272 268 273 272 269 270 273 274 278 271 273 273 273 273 272 272 270 271 272 271 271 271 272 273 272 270 270 271 272 270 269 268 269 270 271 271 272 272 274 274 274 275 275 276
271 270 268 267 268 268 270 274 274 270 272 272 271 271 271 271 270 269 269 269 268 268 269 270 270 269 268 269 269 268 267 268 268 269 269 270 271 272 272 272 273 273 274 274
272 274 272 273 272 269 270 269 270 271 270 269 270 270 270 268 267 266 266 266 266 266 267 267 267 267 266 267 266 265 265 266 266 267 267 268 270 270 270 270 270 271 272 272
272 271 272 270 267 267 268 269 270 270 268 269 269 269 269 267 267 266 265 265 264 264 264 264 264 264 264 265 265 264 265 265 264 264 265 266 266 266 268 268 270 269 270 270
268 270 270 267 264 263 265 268 269 269 268 266 266 266 266 266 265 265 264 264 264 264 263 264 263 263 263 264 264 264 264 264 263 263 264 264 265 265 265 267 267 268 270 270
268 269 270 270 268 266 265 266 268 265 264 265 264 262 263 264 263 265 263 264 263 263 263 262 262 262 262 263 262 263 263 263 262 261 262 263 263 263 265 265 265 269 270 271
Wind_Speed
9 5 9 12 14 13 7 4 7 7 5 1 8 15 14 9 10 9 9 9 9 9 9 8 8 9 10 9 9 8 7 8 5 4 4 5 6 6 7 7 9 9 10 9
8 14 11 9 11 13 13 9 6 5 5 2 8 15 14 10 14 12 11 10 10 7 6 7 6 8 8 9 9 8 8 8 6 5 5 5 5 4 6 6 9 10 12 10
16 7 20 15 9 11 13 12 7 6 3 2 8 13 13 12 18 16 16 16 11 12 9 8 8 9 8 9 9 9 9 9 8 8 4 4 4 3 4 7 8 11 12 11
14 18 15 12 15 11 13 6 9 8 6 4 8 10 6 8 13 19 19 15 14 11 9 8 8 7 8 9 9 9 8 9 8 10 7 8 7 8 4 5 7 9 13 12
9 9 17 20 13 12 7 5 8 6 7 6 13 7 6 12 10 9 14 13 15 12 10 9 9 8 7 2 4 5 3 5 6 7 9 6 6 5 4 4 6 7 9 13
14 6 10 19 15 11 5 3 5 4 0 9 7 13 14 12 11 6 5 9 10 9 7 7 6 3 4 5 5 4 4 5 5 5 6 8 8 6 4 4 4 3 3 6
11 19 10 4 7 12 8 9 3 3 5 8 11 13 15 13 14 5 5 1 9 8 8 7 7 5 3 5 5 3 4 5 5 4 3 5 6 6 6 6 4 4 3 3
10 5 17 12 8 7 17 16 6 8 7 3 14 13 6 10 6 6 5 6 5 5 5 5 6 6 8 7 6 5 4 2 3 2 0 1 2 3 3 4 3 3 3 2
10 13 6 11 10 13 7 16 9 6 2 1 6 9 8 8 6 3 1 4 8 8 6 7 4 2 5 6 4 3 5 4 5 3 3 4 4 5 4 4 4 3 3 3
4 3 7 13 12 18 11 8 6 8 6 8 10 16 14 3 5 8 8 8 8 5 6 6 4 3 4 5 5 5 6 5 4 4 4 4 5 5 5 6 6 6 5 5
15 9 2 2 16 16 10 13 6 4 10 6 5 8 9 13 9 9 10 9 8 7 8 8 6 5 6 5 5 5 5 5 5 5 5 6 5 5 5 5 5 5 4 5
18 5 14 15 3 13 20 18 20 6 10 8 14 14 3 8 7 8 6 5 1 5 8 8 8 8 6 5 6 5 5 6 5 5 4 5 5 5 5 5 5 5 5 5
14 7 8 3 8 11 9 16 19 21 11 15 11 17 11 16 19 10 7 6 3 4 3 5 7 7 7 6 6 6 6 6 5 5 5 6 7 6 6 6 6 5 5 5
3 3 5 14 2 4 6 10 8 16 10 17 18 25 22 7 7 8 8 7 8 7 7 5 5 6 7 7 7 7 6 6 5 5 6 6 6 6 6 6 6 6 6 6
2 1 4 7 11 3 2 6 10 12 13 11 12 20 24 7 6 10 13 12 6 8 6 7 7 6 6 7 8 7 7 7 6 6 7 7 7 7 7 7 7 7 6 6
6 2 2 5 6 9 8 6 12 15 16 16 18 19 24 20 9 12 10 8 6 8 5 4 6 7 8 7 8 8 8 7 7 8 9 9 10 8 7 7 7 7 6 6
7 5 5 6 6 4 3 9 9 11 10 10 15 20 15 19 12 5 8 13 14 13 17 11 9 13 12 12 11 10 8 7 8 9 9 10 9 9 9 9 8 9 10 11
6 4 4 4 4 5 11 12 12 13 12 10 14 17 16 12 15 14 15 15 15 17 17 17 14 15 14 12 11 8 9 10 11 11 11 11 11 11 11 10 9 9 8 9
6 4 2 4 6 5 9 6 8 8 7 2 4 10 13 15 6 13 16 16 16 14 13 12 13 13 14 14 12 11 12 11 10 11 10 10 10 10 10 10 10 9 8 7
11 8 4 1 5 7 8 4 5 2 6 4 5 7 11 12 3 5 12 13 14 12 11 12 12 12 13 12 10 11 11 11 12 12 11 10 9 8 9 9 11 10 8 8
4 2 13 10 8 7 4 3 4 6 5 8 8 8 9 5 5 5 8 10 10 10 13 11 10 12 12 12 10 11 11 11 11 10 10 11 11 11 8 9 10 10 10 8
8 8 6 3 5 13 1 2 5 3 6 6 8 7 4 7 8 7 8 9 11 11 12 11 10 12 12 13 11 11 11 11 11 11 10 10 10 9 9 10 10 10 9 9
6 7 6 7 7 5 5 9 6 6 6 6 5 5 3 7 7 7 7 9 9 9 9 9 10 9 11 11 11 10 10 11 10 11 10 9 9 9 10 10 11 8 9 8
3 2 3 4 3 6 7 6 6 10 9 7 7 5 5 7 7 8 7 7 7 7 8 7 7 8 9 10 10 9 10 10 9 9 9 9 9 10 9 8 7 7 7 8
2 2 3 1 4 4 3 4 6 11 11 10 6 8 7 8 8 7 7 7 6 6 7 7 7 8 9 8 8 8 9 8 9 9 9 9 8 9 9 8 7 8 8 10
4 3 5 2 8 4 7 7 7 11 10 7 8 6 8 7 6 6 7 7 7 7 7 7 9 9 8 8 8 9 9 10 10 10 8 8 8 8 8 8 8 13 17 19
Wind_Direction
189 214 207 203 213 246 285 306 247 263 127 191 243 258 258 256 258 245 248 269 262 241 225 203 194 191 194 204 199 210 188 189 166 176 187 201 203 197 199 213 225 238 232 212
240 227 238 221 229 229 257 265 265 262 82 83 284 279 278 243 235 240 240 235 258 262 241 229 217 223 204 187 193 204 198 193 189 179 189 198 206 198 200 202 219 223 230 223
220 231 205 238 226 229 233 237 242 258 98 269 298 275 247 246 237 236 234 236 223 234 245 243 237 213 195 202 202 204 202 193 187 188 176 190 208 211 170 199 216 220 223 226
241 229 249 209 239 218 238 204 257 258 289 254 153 287 256 283 243 233 234 230 230 234 237 242 235 229 208 218 197 193 195 197 198 179 194 188 199 214 217 196 207 205 205 213
204 189 213 235 222 228 230 273 257 232 260 305 258 290 278 217 260 251 207 214 221 221 224 234 239 229 228 211 176 152 183 240 219 196 184 187 202 207 213 213 214 214 189 201
236 226 212 228 219 192 171 224 97 73 106 252 200 217 254 234 244 279 195 220 201 209 210 227 224 128 171 148 151 174 203 232 223 203 198 193 201 218 230 247 246 234 198 184
224 238 245 231 215 189 164 171 133 185 202 234 183 214 247 294 293 284 198 359 202 187 209 217 204 167 191 200 169 202 222 242 232 202 213 227 227 226 234 234 222 226 230 219
221 211 218 188 214 172 196 189 186 193 204 229 201 239 240 210 249 93 189 186 178 189 184 195 204 201 188 166 156 188 187 253 77 62 59 16 269 208 216 227 229 222 216 228
195 226 179 197 177 169 179 215 229 328 164 342 242 270 286 290 255 232 305 201 208 215 215 212 146 140 149 141 147 167 125 85 67 58 69 62 42 41 40 39 39 18 34 23
262 282 223 193 177 220 178 139 195 210 213 229 242 257 246 356 209 191 220 225 244 242 167 166 155 140 83 120 101 69 84 106 90 68 54 63 50 39 31 49 45 34 19 12
227 254 169 192 200 190 216 214 214 203 224 196 259 255 208 221 197 190 203 194 189 214 192 179 163 146 132 113 112 110 96 93 72 61 53 66 50 38 46 61 52 33 13 13
212 225 236 238 237 223 207 214 206 208 210 235 259 257 281 100 46 54 5 20 236 177 171 161 157 146 145 143 123 120 96 78 54 44 51 52 47 39 45 41 30 21 11 1
208 219 232 236 267 233 231 233 231 228 252 216 217 257 227 253 276 274 224 232 221 234 110 131 136 154 153 146 134 102 80 71 49 37 51 47 33 24 21 16 5 5 2 348
66 237 233 230 99 11 262 247 283 250 237 237 243 261 262 278 285 287 286 230 209 172 150 170 176 164 159 144 128 112 86 63 35 46 53 52 31 16 13 2 359 356 355 345
77 278 10 351 351 11 328 327 331 300 285 257 279 261 264 267 299 349 342 342 234 136 161 185 175 166 137 102 81 75 67 50 14 37 44 34 22 19 12 3 355 349 348 335
156 166 72 303 283 232 223 232 248 258 264 274 265 264 263 276 324 316 316 75 30 333 298 216 171 129 100 90 81 70 58 45 39 41 39 25 16 6 6 0 349 346 344 338
163 150 162 243 245 285 307 228 225 264 238 255 268 263 275 275 261 297 33 36 19 23 9 344 84 80 70 56 49 43 45 45 49 44 40 26 8 3 0 354 3 3 359 351
164 180 155 238 103 198 231 225 236 250 263 290 279 287 280 283 77 62 34 62 38 27 24 35 40 49 41 39 35 48 38 39 47 40 31 18 6 360 352 350 358 359 5 1
168 171 203 170 203 278 319 254 218 210 241 111 276 327 338 345 137 50 31 34 49 29 26 40 44 37 39 21 20 43 43 38 34 24 19 12 3 355 350 350 347 350 340 4
218 195 149 171 192 210 224 67 66 158 275 67 33 19 357 337 323 49 34 31 33 31 27 31 40 41 38 19 19 42 38 28 20 8 360 359 356 358 344 345 343 334 337 344
177 206 222 230 240 271 49 24 303 149 277 37 41 17 27 78 67 61 46 45 40 32 26 28 42 46 32 20 24 38 35 25 8 358 356 359 356 347 348 348 339 333 335 327
162 167 196 219 234 252 69 139 208 11 48 31 47 12 56 85 79 62 50 43 32 31 27 26 39 45 33 26 23 31 24 2 360 357 355 355 353 349 352 343 342 337 332 335
238 198 212 183 208 104 62 97 90 56 68 33 33 13 31 80 71 57 53 53 42 34 28 22 35 43 38 26 29 22 5 356 354 357 352 347 351 359 343 349 342 337 338 337
180 146 198 87 143 129 122 119 101 104 88 54 22 7 42 87 87 76 64 55 44 33 32 23 21 33 31 20 18 8 357 352 350 347 341 340 348 340 346 338 329 331 330 328
160 83 171 106 125 96 133 119 134 110 110 94 67 46 34 70 62 64 56 46 39 34 20 19 15 20 15 7 7 3 350 349 343 338 334 341 344 338 331 330 329 317 318 314
172 175 195 228 133 85 117 112 103 97 94 82 108 85 49 56 60 63 60 43 27 19 15 17 9 7 353 357 359 354 347 352 340 331 335 338 334 330 329 324 320 317 317 315